Regional Weather Roundup
Issued by NWS State College, PA

Home | Current Version | Previous Version | Text Only | Print | Product List | Glossary Off
Versions: 1 2 3 4 5 6 7 8 9 10 11 12 13 14 15 16 17 18 19 20 21 22 23 24 25 26 27 28 29 30 31 32 33 34 35 36 37 38 39 40 41 42 43 44 45 46 47 48 49 50

000
ASUS41 KCTP 291510
RWRCTP

REGIONAL WEATHER ROUNDUP
NATIONAL WEATHER SERVICE STATE COLLEGE PA
1100 AM EDT FRI APR 29 2016

Note: "fair" indicates few or no clouds below 12,000 feet with no
significant weather and/or obstructions to visibility.

* = STATION THAT DOES NOT REPORT PRECIPITATION /E.G. RAIN...SNOW...ETC/
    THUNDER OR FOG.

PAZ002>004-007>009-013>016-020>023-029>032-291600-
WESTERN PENNSYLVANIA

CITY           SKY/WX    TMP DP  RH WIND       PRES   REMARKS
ERIE           CLOUDY    47  38  71 NE9       30.01S
MEADVILLE      CLOUDY    44  42  93 E3        29.98S
FRANKLIN*      CLOUDY    45  43  93 SE3       30.00S
NEW CASTLE     CLOUDY    48  45  89 SW3       29.99F
BEAVER COUNTY  CLOUDY    46  46 100 CALM      29.98F FOG
BUTLER*        CLOUDY    46  45  93 SW3       30.01R
PITTSBURGH INT CLOUDY    49  46  90 S3        29.98F FOG
PITTSBURGH     CLOUDY    49  47  93 SW3       29.97F FOG
INDIANA*       CLOUDY    50  50 100 SW7       30.00F FOG
LATROBE        CLOUDY    50  50 100 SW6       29.99F FOG
WASHINGTON CO* CLOUDY    54  48  82 SW9       29.99S
$$

PAZ004>006-010>012-017>019-024>028-033>037-041-042-045-046-049>053-291600-
CENTRAL PENNSYLVANIA

CITY           SKY/WX    TMP DP  RH WIND       PRES   REMARKS
BRADFORD       CLOUDY    43  41  93 SE7       29.98S FOG
DUBOIS         CLOUDY    44  42  93 E9        29.97F
CLEARFIELD     CLOUDY    45  42  89 E6        30.00F FOG
JOHNSTOWN      CLOUDY    48  44  86 S10       29.96F FOG
ALTOONA        CLOUDY    45  43  93 SE8       30.01S FOG
STATE COLLEGE  CLOUDY    45  43  93 SE3       30.03S FOG
WILLIAMSPORT   CLOUDY    47  38  71 E8        30.06S
SELINSGROVE    CLOUDY    45  40  82 SE5       30.08S
FT INDIANTOWN  CLOUDY    45  43  93 VRB1      30.08F
CAPITAL CITY   LGT RAIN  46  43  89 E10       30.08F FOG
HARRISBURG     LGT RAIN  46  43  89 E9        30.08S FOG
YORK           LGT RAIN  46  45  96 E7        30.06F FOG
$$

PAZ038>040-043-044-047-048-054-055-060>062-067>071-291600-
EASTERN PENNSYLVANIA

CITY           SKY/WX    TMP DP  RH WIND       PRES   REMARKS
SCRANTON       CLOUDY    54  34  46 CALM      30.05R
MOUNT POCONO   CLOUDY    47  35  63 SE10G18   30.06R
ALLENTOWN      CLOUDY    52  37  56 SE10      30.09R
QUAKERTOWN*    CLOUDY    50  39  66 E5        30.10R
READING        CLOUDY    50  37  61 E8        30.08R
LANCASTER      CLOUDY    47  42  83 E6        30.09R
COATESVILLE    CLOUDY    46  46 100 E3G13     30.10R
POTTSTOWN      CLOUDY    49  41  74 E5        30.11R
BLUE BELL      CLOUDY    50  41  71 E7        30.09R
DOYLESTOWN     CLOUDY    49  39  68 VRB3      30.09R
WILLOW GROVE   NOT AVBL
NORTH PHILA    CLOUDY    53  40  61 E10       30.11R
PHILADELPHIA   LGT RAIN  52  41  66 E10       30.09R
$$




USA.gov is the U.S. government's official web portal to all federal, state and local government web resources and services.